sat.trackr.live / text

‹ back to catalog

STARLINK-32043

NORAD 60135 · 2024-120A

PAYLOAD ACTIVE UNKNOWN

§ Identity

Operator
Country
US
Launch date
2024-06-27
Launch site
AFETR
Launch vehicle
Mass (kg)
RCS (m²)

Purposes: comms

External: N2YO · Heavens-Above · Gunter

§ Orbital elements

Epoch: 2026-09-21T20:06:16.727040Z

Period
93.85 min
Inclination
53.1594°
Eccentricity
0.0001374
Mean motion
15.34389284 rev/d
Perigee alt
461.8 km
Apogee alt
463.7 km
Semi-major
6,840.9 km
B*
-1.0440e-5
RAAN
125.5531°
Arg perigee
89.3882°
Mean anomaly
270.7278°
Rev number
12,645

§ Raw data

STARLINK-320431 60135U 24120A   26264.83769360 -.00000729  00000+0 -10440-4 0  99982 60135  53.1594 125.5531 0001374  89.3882 270.7278 15.34389284126457

JSON: /api/v1/satellites/60135 · /tle

For live sub-satellite position, see the globe view (requires WebGL).

§ Visibility from observer

Set your observer location to see the next 7 days of passes ≥ 10°. The values pass through the URL so the page stays shareable.

No JS? Fill the form by hand. The geolocation button needs JavaScript.